Showing default

ELEVATION-1, 62677

Orbit data source: Space-Track

ELEVATION-1, 62677 is a UK payload satellite in SSO that was launched on Tue, 14 Jan 2025 UTC via an FALCON 9 launch vehicle from the Air Force Western Test Range (AFWTR). Payload-class satellites include a variety of spacecraft equipped with specific instruments for various scientific and technological missions. These include communications satellites like Starlink; space stations such as the ISS; scientific satellites like the Hubble; Earth observation satellites from companies like Planet Labs, Umbra, and HawkEye 360; GPS; miniature CubeSats for education and research; and military/defense satellites.

Loading next visibility...
Identifier
62677, 2025-009BW
Orbit
SSO
Country
Flag of UKUK
Related business
Manufacturer
XDLINX
Mission
Operational Commercial Communications
Bus & Motor
CUBESAT 6U, Unknown motor
Mass
~10 kg wet, ~10 kg dry
Launch date (UTC)
2025-01-14 (9 months ago)
Launch vehicle
FALCON 9
Launch site
Air Force Western Test Range (AFWTR)
Object type
Payload
Rocket body
Debris
Shape & HBR
Box + 2 Pan, 0.5 m
Radar Cross Section
0.080 m², Medium (>0.1 m² and < 1m²)

Expand to show TLE details & history
Last TLE update: 1 day ago

TLE from 1 day ago
0 ELEVATION-1
1 62677U 25009BW  25300.67197014  .00024664  00000-0  88264-3 0  9992
2 62677  97.4100  20.0244 0005455  75.3817 284.8028 15.28759255101141
Epoch: 2025-10-27T16:07Z
TLE epoch observation values (Epoch: 2025-10-27T16:07:38.220Z)
Latitude
0.00006°
Longitude
101.84468°
Altitude
481.668 km
Speed
7.625 km/s
True Right ascension
01h 20m 05s
True Declination
0° 00' 00"
Sunlit
Object was in full shadow at epoch
Visualization orbit readout
Latitude
Unknown
Longitude
Unknown
Altitude
Unknown
Speed
Unknown
Apparent Right ascension
Unknown
Apparent Declination
Unknown
Sunlit
N/A
Visualization observer readout
Local Sidereal Time
11:46:44
Azimuth
Unknown
Elevation
Unknown
Doppler factor
Unknown
Orbital elements
Apogee altitude
480.214 km
Perigee altitude
472.735 km
Semi-major axis
6,854.612 km
Eccentricity
0.00055
Inclination
97.41°
RAAN
20.0244°
Arg. of periapsis
75.3817°
True anomaly
284.74235°
Mean anomaly
284.8028°
Eccentric anomaly
284.77258°
Mean motion
3.82445 °/min
Orbital period
94.13 mins
BSTAR
0.00088264
Loading maneuver chart data...
Computing Atmospheric mass density...
Loading historical data...
Loading historical data...
Loading historical data...
Loading historical data...
Loading historical data...
Loading historical data...
Loading historical data...

Documentation

Showing up to 5 results
|